ATLAS 5 CENTAUR DEB, 44682

Orbit data source: Space-Track

ATLAS 5 CENTAUR DEB, 44682 is space debris in HEO originally from a launch on Wed, 17 Oct 2018 UTC launched from the Air Force Eastern Test Range (AFETR). Debris objects in space refer to the collection of defunct objects orbiting the Earth. Examples of debris include non-operational satellites, rocket bodies, and fragments generated from explosions, collisions, or faulty payload assembly.

Loading next visibility...
Identifier
44682, 2018-079AU
Orbit
HEO
Country
Flag of USUS
Related business
Flag of USUnited Launch Alliance/Lockheed Martin (US)
Manufacturer
ULA Decatur
Mission
Spacecraft
Bus & Motor
Unknown
Mass
Unknown
Launch date (UTC)
2018-10-17 (8 years ago)
Launch vehicle
Unknown
Launch site
Air Force Eastern Test Range (AFETR)
Object type
Payload
Rocket body
Debris
Shape & HBR
Unknown shape, 1.1 m
Radar Cross Section
Medium (>0.1 m² and <1 m²)

Expand to show TLE details & history
Last TLE update: 4 days ago

TLE from 4 days ago
0 ATLAS 5 CENTAUR DEB
1 44682U 18079AU  26175.07455959 -.00000094  00000-0  00000-0 0  9998
2 44682  13.3950  35.5863 4636041 312.7828  16.4913  1.81924786 46989
Epoch: 2026-06-24T01:47Z
TLE epoch observation values (Epoch: 2026-06-24T01:47:21.948Z)
Latitude
0.00011°
Longitude
96.47991°
Altitude
10,575.423 km
Speed
5.741 km/s
True Right ascension
02h 22m 14s
True Declination
0° 00' 00"
Sunlit
Object was in daylight at epoch
Visualization orbit readout
Latitude
Unknown
Longitude
Unknown
Altitude
Unknown
Speed
Unknown
Apparent Right ascension
Unknown
Apparent Declination
Unknown
Sunlit
N/A
Visualization observer readout
Local Sidereal Time
05:46:25
Azimuth
Unknown
Elevation
Unknown
Doppler factor
Unknown
Orbital elements
Apogee altitude
35,110.511 km
Perigee altitude
8,827.027 km
Semi-major axis
28,346.906 km
Eccentricity
0.4636
Inclination
13.395°
RAAN
35.5863°
Arg. of periapsis
312.7828°
True anomaly
47.18538°
Mean anomaly
16.4913°
Eccentric anomaly
29.61953°
Mean motion
0.45476 °/min
Orbital period
791.62 mins
BSTAR
0
Loading maneuver chart data...
Computing Atmospheric mass density...

Documentation

Showing up to 5 results
|